TimeCDT,TemperatureF,Dew PointF,Humidity,Sea Level PressureIn,VisibilityMPH,Wind Direction,Wind SpeedMPH,Gust SpeedMPH,PrecipitationIn,Events,Conditions,WindDirDegrees,DateUTC
12:42 AM,17.6,12.2,79,29.93,1.0,NE,5.8,-,0.01,Snow,Light Snow,40,2013-03-16 05:42:00
12:53 AM,17.1,12.0,81,29.99,1.5,NE,5.8,-,0.02,Snow,Light Snow,40,2013-03-16 05:53:00
1:02 AM,15.8,12.2,86,29.93,1.2,NE,8.1,-,0.00,Snow,Light Snow,40,2013-03-16 06:02:00
1:18 AM,15.8,12.2,86,29.93,1.0,Variable,4.6,-,0.00,Snow,Light Snow,0,2013-03-16 06:18:00
1:32 AM,15.8,12.2,86,29.93,0.8,Variable,4.6,-,0.01,Snow,Light Snow,0,2013-03-16 06:32:00
1:45 AM,15.8,12.2,86,29.93,1.0,NE,4.6,-,0.02,Snow,Light Snow,40,2013-03-16 06:45:00
1:53 AM,16.0,12.0,84,30.00,1.0,NE,3.5,-,0.02,Snow,Light Snow,40,2013-03-16 06:53:00
2:21 AM,15.8,10.4,79,29.94,2.0,NE,4.6,-,0.00,Snow,Light Snow,40,2013-03-16 07:21:00
2:46 AM,15.8,10.4,79,29.94,1.8,Variable,3.5,-,0.01,Snow,Light Snow,0,2013-03-16 07:46:00
2:53 AM,16.0,10.9,81,30.01,2.0,Variable,3.5,-,0.01,Snow,Light Snow,0,2013-03-16 07:53:00
3:00 AM,15.8,10.4,79,29.94,3.0,Variable,5.8,-,0.00,Snow,Light Snow,0,2013-03-16 08:00:00
3:53 AM,15.1,10.0,80,30.02,4.0,Calm,Calm,-,0.00,Snow,Light Snow,0,2013-03-16 08:53:00
4:53 AM,14.0,8.1,77,30.03,5.0,NE,6.9,-,0.00,Snow,Light Snow,50,2013-03-16 09:53:00
5:53 AM,12.9,7.0,77,30.06,10.0,NE,5.8,-,0.00,,Overcast,50,2013-03-16 10:53:00
6:53 AM,10.0,5.0,80,30.09,10.0,Calm,Calm,-,N/A,,Partly Cloudy,0,2013-03-16 11:53:00
7:53 AM,1.9,-2.0,83,30.11,8.0,Calm,Calm,-,N/A,,Clear,0,2013-03-16 12:53:00
8:53 AM,14.0,7.0,74,30.12,10.0,Calm,Calm,-,N/A,,Mostly Cloudy,0,2013-03-16 13:53:00
9:53 AM,16.0,8.1,71,30.13,10.0,Variable,3.5,-,N/A,,Overcast,0,2013-03-16 14:53:00
10:53 AM,18.0,9.0,68,30.11,10.0,Calm,Calm,-,N/A,,Overcast,0,2013-03-16 15:53:00
11:53 AM,21.0,9.0,60,30.12,10.0,West,5.8,-,N/A,,Overcast,280,2013-03-16 16:53:00
12:53 PM,21.0,8.1,57,30.11,10.0,Variable,6.9,-,N/A,,Overcast,0,2013-03-16 17:53:00
1:53 PM,21.9,10.0,60,30.11,10.0,WSW,8.1,-,N/A,,Overcast,250,2013-03-16 18:53:00
2:53 PM,23.0,10.0,58,30.09,10.0,Variable,5.8,-,N/A,,Overcast,0,2013-03-16 19:53:00
3:53 PM,25.0,7.0,46,30.08,10.0,West,8.1,16.1,N/A,,Overcast,270,2013-03-16 20:53:00
4:53 PM,25.0,6.1,45,30.08,10.0,Variable,4.6,-,N/A,,Mostly Cloudy,0,2013-03-16 21:53:00
5:53 PM,24.1,3.9,42,30.08,10.0,Variable,6.9,-,N/A,,Clear,0,2013-03-16 22:53:00
6:53 PM,21.0,3.9,48,30.10,10.0,Variable,5.8,-,N/A,,Clear,0,2013-03-16 23:53:00
7:53 PM,19.0,3.0,50,30.15,10.0,WNW,4.6,-,N/A,,Partly Cloudy,300,2013-03-17 00:53:00
8:53 PM,17.1,3.0,54,30.19,10.0,Variable,3.5,-,N/A,,Scattered Clouds,0,2013-03-17 01:53:00
9:53 PM,14.0,1.0,56,30.22,10.0,NNW,4.6,-,N/A,,Clear,330,2013-03-17 02:53:00
10:53 PM,12.0,-0.9,56,30.24,10.0,Variable,3.5,-,N/A,,Clear,0,2013-03-17 03:53:00
11:53 PM,10.0,-0.9,61,30.26,10.0,NNW,4.6,-,N/A,,Clear,340,2013-03-17 04:53:00